Location: Asheville, NC
(35.6000°N, 82.5500°W)
Time: 06:30:38
(UTC-05:00)

Vanguard 3 - Pass Details

Date: 11 December 2017
Orbit: 508 x 3264 km, 33.4° (Epoch: 18 January)

Event Time Altitude Azimuth Distance (km) Brightness Sun altitude
Rises 14:03:20 0° 251° (WSW) 2,815 10.6 26.8°
Reaches altitude 10° 14:05:45 10° 245° (WSW) 1,782 9.8 26.6°
Maximum altitude 14:09:25 50° 169° (S) 646 7.7 26.2°
Drops below altitude 10° 14:13:07 10° 93° (E) 1,798 8.8 25.9°
Sets 14:15:34 0° 88° (E) 2,843 9.7 25.6°
